Weather Service Report


346 
ASUS41 KCLE 080002
RWRCLE
OHIO REGIONAL WEATHER ROUNDUP
NATIONAL WEATHER SERVICE CLEVELAND, OH
700 PM EST SUN FEB 07 2016

NOTE: "FAIR" INDICATES FEW OR NO CLOUDS BELOW 12,000 FEET WITH NO
SIGNIFICANT WEATHER AND/OR OBSTRUCTIONS TO VISIBILITY.

OHZ001>008-015>018-024>027-034-035-043-044-080100-
   NORTHWEST OHIO
  
CITY           SKY/WX    TMP DP  RH WIND       PRES   REMARKS
DEFIANCE       CLOUDY    45  32  60 S8        29.78F                  
FINDLAY        CLOUDY    45  30  55 S10       29.80S                  
TOLEDO EXPRESS CLOUDY    47  29  49 S14G21    29.78S                  
TOLEDO EXEC    CLOUDY    45  30  55 S9        29.80S                  
LIMA           CLOUDY    46  29  51 S9        29.81S                  
$$

OHZ009>014-019>023-028>033-038-089-080100-
   NORTHEAST OHIO
  
CITY           SKY/WX    TMP DP  RH WIND       PRES   REMARKS
CLE-HOPKINS    CLOUDY    47  26  44 S10       29.87R                  
CLE-LAKEFRONT  CLOUDY    50  26  39 S16G22    29.84R                  
CUY CO. ARPT   MOCLDY    41  28  60 SW17      29.86R                  
LORAIN-ELYRIA  CLOUDY    46  25  43 S9        29.84S                  
ASHTABULA      CLOUDY    44  27  51 S5        29.87R                  
AKRON-CANTON   CLOUDY    45  24  43 S9        29.86F                  
WOOSTER        CLOUDY    44  26  49 SW7       29.86F                  
MANSFIELD      CLOUDY    44  26  49 S13       29.84S                  
YOUNGSTOWN     CLOUDY    45  25  45 S5        29.87F                  
$$

OHZ042-051>053-060>062-070>072-077>081-080100-
  SOUTHWEST OHIO
  
CITY           SKY/WX    TMP DP  RH WIND       PRES   REMARKS
CINC-COVINGTON MOCLDY    47  21  35 SW9       29.87S                  
CINC-LUNKEN    PTCLDY    44  24  45 S9        29.89S                  
HAMILTON       CLOUDY    48  22  35 S5        29.87F                  
DAYTON         CLOUDY    47  23  38 S12       29.85S                  
WRIGHT-PAT AFB CLOUDY    47  20  33 S9        29.85S                  
DAYTON GENERAL CLOUDY    46  21  37 S9        29.85S                  
WILMINGTON     CLEAR     41  24  51 S6        29.87R                  
$$

OHZ036-037-039>041-045>050-054>059-063>069-073>076-082>088-080100-
  CENTRAL AND SOUTHEAST OHIO
  
CITY           SKY/WX    TMP DP  RH WIND       PRES   REMARKS
COLUMBUS       CLOUDY    45  21  38 S7        29.87F                  
OSU AIRPORT    CLOUDY    45  22  40 S8        29.86S                  
BOLTON FIELD   CLEAR     43  25  49 SW8       29.87S                  
RICKENBACK AFB NOT AVBL                                               
NEWARK         CLOUDY    47  24  40 S5        29.87F                  
MARION         CLOUDY    44  25  47 S10       29.85S                  
LANCASTER      CLOUDY    46  24  42 S6        29.88F                  
ZANESVILLE     CLOUDY    49  21  33 S5        29.88F                  
NEW PHILLY     CLOUDY    46  25  43 CALM      29.88F                  
$$
  

Return to Home page


Western Regional Climate Center, wrcc@dri.edu